Live-Position
3D-Globus wird geladen...
Über Beidou DW 33
Group: 3 satellites
Beschreibung wird geladen...
Nächste Überflüge
Passes for default location (London). Set your location on the main map for personalized predictions.
Höhenverlauf
Loading altitude history...
No altitude history available
Zweizeiliger Elementsatz
1 43581U 18062A 26126.22462587 .00000031 00000-0 00000+0 0 9994
2 43581 54.0836 183.7310 0004634 289.0991 70.9334 1.86228874 52859
Epoch: 6. Mai 2026 •
Age: 25 hours
Aktueller Status
Höhe 21525.4 km
Geschwindigkeit 3.78 km/s
Subsatellitenpunkt -24.98°S,
151.71°W
Startdatum 29. Juli 2018
Alter 7.7 years
Typ navigation
Technische Details
Klassifizierung Payload
Masse 1014.00 kg
Trockenmasse 850.00 kg
Gesamtmasse 1014.00 kg
Länge 2.20 m
Durchmesser 1.70 m
Spannweite 10.00 m
Form Box + 2 Pan
Hersteller CAST
Bus-Typ BD-3M
Phasenstatus In Orbit
Besitzer/Staat CNSA/CN
Most Searched
Loading...